User: anonymous   Login
Location: Doazon
(43.4500°N, 0.5500°W)
Time: 02:42:19
(UTC+00:00)
Language:

Cosmos 1933 - Orbit

View from above orbital plane
View from above orbital plane
View from above satellite
View from above satellite

Ground track
Ground track

The orbit is defined by the following mean orbital elements,

1 18958U          26040.70626453 +.00000000 +00000-0 +17756-3 0 00008
2 18958  82.5121 278.5986 0003120 315.8966  44.2019 15.17741890    04
Epoch (UTC): 09 February 2026 16:57:01
Eccentricity: 0.0003120
inclination: 82.5121°
perigee height: 511 km
apogee height: 515 km
right ascension of ascending node: 278.5986°
argument of perigee: 315.8966°
revolutions per day: 15.17741890
mean anomaly at epoch: 44.2019°

The dashed part of the orbit path shows where the satellite is in the earth's shadow,  

DLR